Location: Lake Mineral Wells State Park
(32.8157°N, 98.0290°W)
Time: 18:07:03
(UTC-05:00)

Hubble Space Telescope - Visible Passes

Search period start: 24 March 2019 00:00
Search period end: 03 April 2019 00:00
Orbit: 537 x 540 km, 28.5° (Epoch: 24 March)

Date Brightness Start Highest point End Pass type
(mag) Time Alt. Az. Time Alt. Az. Time Alt. Az.
24 Mar 2.3 21:36:26 10° SW 21:38:49 27° SSW 21:38:49 27° SSW visible
25 Mar 1.6 21:25:49 10° WSW 21:29:10 36° S 21:29:10 36° S visible
26 Mar 1.3 21:15:14 10° WSW 21:19:09 41° S 21:19:27 40° SSE visible
27 Mar 1.3 21:04:41 10° WSW 21:08:38 44° S 21:09:42 35° SE visible
28 Mar 1.3 20:54:10 10° WSW 20:58:07 45° S 20:59:53 28° ESE visible
29 Mar 1.3 20:43:39 10° WSW 20:47:37 46° S 20:50:02 21° ESE visible
29 Mar 3.6 22:24:50 10° WSW 22:25:23 13° WSW 22:25:23 13° WSW visible
30 Mar 1.4 20:33:09 10° WSW 20:37:06 45° S 20:40:11 15° ESE visible
30 Mar 3.3 22:14:26 10° WSW 22:15:32 16° WSW 22:15:32 16° WSW visible
31 Mar 1.5 20:22:39 10° WSW 20:26:35 43° S 20:30:20 11° ESE visible
31 Mar 3.0 22:04:05 10° WSW 22:05:41 18° SW 22:05:41 18° SW visible
01 Apr 1.6 20:12:11 10° WSW 20:16:04 40° S 20:19:57 10° ESE visible
01 Apr 2.9 21:53:49 10° WSW 21:55:50 18° SW 21:55:50 18° SW visible
02 Apr 2.9 21:43:40 10° WSW 21:46:01 16° SSW 21:46:01 16° SSW visible
